User: anonymous   Login
Location: Ladysmith
(45.4630°N, 91.1040°W)
Time: 04:08:36
(UTC-06:00)
Language:

SO-67 - Orbit

View from above orbital plane
View from above orbital plane
View from above satellite
View from above satellite

Ground track
Ground track

The orbit data is extracted from the following two-line orbital elements,

1 35870U 09049F   18022.84345228 +.00004912 +00000-0 +71159-4 0  9997
2 35870 097.0915 042.8301 0002408 037.6296 088.8315 15.56343153467355
Epoch (UTC): 22 January 2018 20:14:34
Eccentricity: 0.0002408
inclination: 97.0915°
perigee height: 396 km
apogee height: 400 km
right ascension of ascending node: 42.8301°
argument of perigee: 37.6296°
revolutions per day: 15.56343153
mean anomaly at epoch: 88.8315°
orbit number at epoch: 46735

The dashed part of the orbit path shows where the satellite is in the earth's shadow,  

DLR